Satellite: HAWKSAT1
Catalog number: 35003
Epoch time:      09239.89915178
Element set:      85
Inclination:      040.4621 deg
RA of node:       170.6285 deg
Eccentricity:    0.0028760
Arg of perigee:   340.5292 deg
Mean anomaly:     019.4433 deg
Mean motion:   15.40481695 rev/day
Decay rate:      2.679e-05 rev/day^2
Epoch rev:            1541
Checksum:              300

Satellite: CP6
Catalog number: 35004
Epoch time:      09239.96357521
Element set:      79
Inclination:      040.4621 deg
RA of node:       170.2400 deg
Eccentricity:    0.0028297
Arg of perigee:   341.3468 deg
Mean anomaly:     018.6297 deg
Mean motion:   15.40521633 rev/day
Decay rate:      2.935e-05 rev/day^2
Epoch rev:            1541
Checksum:              284

Satellite: AEROCUB3
Catalog number: 35005
Epoch time:      09239.78091622
Element set:      79
Inclination:      040.4742 deg
RA of node:       171.6103 deg
Eccentricity:    0.0028333
Arg of perigee:   337.6032 deg
Mean anomaly:     022.3547 deg
Mean motion:   15.40324506 rev/day
Decay rate:      2.876e-05 rev/day^2
Epoch rev:            1538
Checksum:              274

Satellite: DRAGNSAT
Catalog number: 35690
Epoch time:      09238.64447228
Element set:      27
Inclination:      051.6455 deg
RA of node:       303.5995 deg
Eccentricity:    0.0003724
Arg of perigee:   164.5711 deg
Mean anomaly:     195.5388 deg
Mean motion:   15.81475644 rev/day
Decay rate:     1.5274e-04 rev/day^2
Epoch rev:             429
Checksum:              317

Satellite: POLLUX
Catalog number: 35693
Epoch time:      09239.60138911
Element set:      27
Inclination:      051.6418 deg
RA of node:       298.7448 deg
Eccentricity:    0.0004047
Arg of perigee:   103.3990 deg
Mean anomaly:     256.7477 deg
Mean motion:   15.80951234 rev/day
Decay rate:     1.4243e-04 rev/day^2
Epoch rev:             441
Checksum:              300

Satellite: CASTOR
Catalog number: 35694
Epoch time:      09239.60743633
Element set:      27
Inclination:      051.6428 deg
RA of node:       298.7907 deg
Eccentricity:    0.0004563
Arg of perigee:   113.0465 deg
Mean anomaly:     247.1027 deg
Mean motion:   15.80405492 rev/day
Decay rate:      7.866e-05 rev/day^2
Epoch rev:             441
Checksum:              302

/EX





More information about the Keps mailing list